{"data":{"norad_id":67849,"epoch":"2026-09-19T06:19:55.062336Z","epoch_age_seconds":173190,"freshness":"STALE","line1":"1 67849U 26033AE  26262.26383174  .00008347  00000+0  31247-3 0  9991","line2":"2 67849  42.9975 254.2856 0000944 273.2801  86.7943 15.27583918 34276","mean_motion":15.27583918,"eccentricity":9.44e-5,"inclination_deg":42.9975,"raan_deg":254.2856,"arg_perigee_deg":273.2801,"mean_anomaly_deg":86.7943,"bstar":0.00031247,"rev_number":3427,"period_min":94.266506935038,"perigee_km":482.38966930326,"apogee_km":483.68505902321,"semimajor_km":6861.1743641632,"source":"CELESTRAK","updated_at":"2026-09-20T09:00:43.673022Z"}}